Year,Month,Day,Hour,Minute,Value (Times are PST for temperature in C)
2018,08,21,00,00,17.80
2018,08,21,00,01,17.80
2018,08,21,00,02,17.80
2018,08,21,00,03,17.70
2018,08,21,00,04,17.70
2018,08,21,00,05,17.70
2018,08,21,00,06,17.70
2018,08,21,00,07,17.70
2018,08,21,00,08,17.60
2018,08,21,00,09,17.60
2018,08,21,00,10,17.60
2018,08,21,00,11,17.60
2018,08,21,00,12,17.50
2018,08,21,00,13,17.50
2018,08,21,00,14,17.50
2018,08,21,00,15,17.50
2018,08,21,00,16,17.50
2018,08,21,00,17,17.40
2018,08,21,00,18,17.40
2018,08,21,00,19,17.40
2018,08,21,00,20,17.40
2018,08,21,00,21,17.40
2018,08,21,00,22,17.40
2018,08,21,00,23,17.40
2018,08,21,00,24,17.40
2018,08,21,00,25,17.30
2018,08,21,00,26,17.30
2018,08,21,00,27,17.30
2018,08,21,00,28,17.30
2018,08,21,00,29,17.30
2018,08,21,00,30,17.30
2018,08,21,00,31,17.30
2018,08,21,00,32,17.30
2018,08,21,00,33,17.30
2018,08,21,00,34,17.30
2018,08,21,00,35,17.30
2018,08,21,00,36,17.30
2018,08,21,00,37,17.30
2018,08,21,00,38,17.30
2018,08,21,00,39,17.30
2018,08,21,00,40,17.30
2018,08,21,00,41,17.30
2018,08,21,00,42,17.30
2018,08,21,00,43,17.20
2018,08,21,00,44,17.20
2018,08,21,00,45,17.20
2018,08,21,00,46,17.20
2018,08,21,00,47,17.20
2018,08,21,00,48,17.20
2018,08,21,00,49,17.20
2018,08,21,00,50,17.20
2018,08,21,00,51,17.20
2018,08,21,00,52,17.20
2018,08,21,00,53,17.20
2018,08,21,00,54,17.20
2018,08,21,00,55,17.20
2018,08,21,00,56,17.20
2018,08,21,00,57,17.20
2018,08,21,00,58,17.10
2018,08,21,00,59,17.10
2018,08,21,01,00,17.10
2018,08,21,01,01,17.10
2018,08,21,01,02,17.10
2018,08,21,01,03,17.00
2018,08,21,01,04,17.00
2018,08,21,01,05,17.00
2018,08,21,01,06,17.00
2018,08,21,01,07,17.00
2018,08,21,01,08,16.90
2018,08,21,01,09,16.90
2018,08,21,01,10,16.90
2018,08,21,01,11,16.90
2018,08,21,01,12,16.90
2018,08,21,01,13,16.90
2018,08,21,01,14,16.90
2018,08,21,01,15,16.90
2018,08,21,01,16,16.90
2018,08,21,01,17,16.80
2018,08,21,01,18,16.80
2018,08,21,01,19,16.80
2018,08,21,01,20,16.80
2018,08,21,01,21,16.80
2018,08,21,01,22,16.80
2018,08,21,01,23,16.70
2018,08,21,01,24,16.70
2018,08,21,01,25,16.70
2018,08,21,01,26,16.70
2018,08,21,01,27,16.70
2018,08,21,01,28,16.70
2018,08,21,01,29,16.70
2018,08,21,01,30,16.70
2018,08,21,01,31,16.70
2018,08,21,01,32,16.70
2018,08,21,01,33,16.70
2018,08,21,01,34,16.70
2018,08,21,01,35,16.70
2018,08,21,01,36,16.70
2018,08,21,01,37,16.70
2018,08,21,01,38,16.70
2018,08,21,01,39,16.70
2018,08,21,01,40,16.70
2018,08,21,01,41,16.70
2018,08,21,01,42,16.70
2018,08,21,01,43,16.60
2018,08,21,01,44,16.60
2018,08,21,01,45,16.60
2018,08,21,01,46,16.60
2018,08,21,01,47,16.50
2018,08,21,01,48,16.40
2018,08,21,01,49,16.40
2018,08,21,01,50,16.40
2018,08,21,01,51,16.40
2018,08,21,01,52,16.40
2018,08,21,01,53,16.40
2018,08,21,01,54,16.40
2018,08,21,01,55,16.40
2018,08,21,01,56,16.30
2018,08,21,01,57,16.30
2018,08,21,01,58,16.30
2018,08,21,01,59,16.30
2018,08,21,02,00,16.30
2018,08,21,02,01,16.30
2018,08,21,02,02,16.30
2018,08,21,02,03,16.20
2018,08,21,02,04,16.20
2018,08,21,02,05,16.20
2018,08,21,02,06,16.20
2018,08,21,02,07,16.20
2018,08,21,02,08,16.20
2018,08,21,02,09,16.20
2018,08,21,02,10,16.10
2018,08,21,02,11,16.10
2018,08,21,02,12,16.10
2018,08,21,02,13,16.10
2018,08,21,02,14,16.10
2018,08,21,02,15,16.10
2018,08,21,02,16,16.10
2018,08,21,02,17,16.10
2018,08,21,02,18,16.10
2018,08,21,02,19,15.90
2018,08,21,02,20,15.90
2018,08,21,02,21,15.90
2018,08,21,02,22,15.90
2018,08,21,02,23,15.90
2018,08,21,02,24,15.90
2018,08,21,02,25,15.90
2018,08,21,02,26,15.90
2018,08,21,02,27,15.80
2018,08,21,02,28,15.80
2018,08,21,02,29,15.80
2018,08,21,02,30,15.80
2018,08,21,02,31,15.80
2018,08,21,02,32,15.80
2018,08,21,02,33,15.80
2018,08,21,02,34,15.80
2018,08,21,02,35,15.80
2018,08,21,02,36,15.80
2018,08,21,02,37,15.80
2018,08,21,02,38,15.80
2018,08,21,02,39,15.80
2018,08,21,02,40,15.80
2018,08,21,02,41,15.80
2018,08,21,02,42,15.80
2018,08,21,02,43,15.80
2018,08,21,02,44,15.80
2018,08,21,02,45,15.80
2018,08,21,02,46,15.80
2018,08,21,02,47,15.70
2018,08,21,02,48,15.70
2018,08,21,02,49,15.70
2018,08,21,02,50,15.70
2018,08,21,02,51,15.70
2018,08,21,02,52,15.70
2018,08,21,02,53,15.60
2018,08,21,02,54,15.60
2018,08,21,02,55,15.60
2018,08,21,02,56,15.60
2018,08,21,02,57,15.60
2018,08,21,02,58,15.60
2018,08,21,02,59,15.60
2018,08,21,03,00,15.60
2018,08,21,03,01,15.60
2018,08,21,03,02,15.70
2018,08,21,03,03,15.70
2018,08,21,03,04,15.70
2018,08,21,03,05,15.70
2018,08,21,03,06,15.70
2018,08,21,03,07,15.70
2018,08,21,03,08,15.70
2018,08,21,03,09,15.60
2018,08,21,03,10,15.60
2018,08,21,03,11,15.60
2018,08,21,03,12,15.60
2018,08,21,03,13,15.60
2018,08,21,03,14,15.60
2018,08,21,03,15,15.60
2018,08,21,03,16,15.50
2018,08,21,03,17,15.50
2018,08,21,03,18,15.50
2018,08,21,03,19,15.50
2018,08,21,03,20,15.50
2018,08,21,03,21,15.50
2018,08,21,03,22,15.40
2018,08,21,03,23,15.40
2018,08,21,03,24,15.40
2018,08,21,03,25,15.30
2018,08,21,03,26,15.30
2018,08,21,03,27,15.30
2018,08,21,03,28,15.30
2018,08,21,03,29,15.30
2018,08,21,03,30,15.30
2018,08,21,03,31,15.20
2018,08,21,03,32,15.20
2018,08,21,03,33,15.20
2018,08,21,03,34,15.20
2018,08,21,03,35,15.20
2018,08,21,03,36,15.10
2018,08,21,03,37,15.10
2018,08,21,03,38,15.10
2018,08,21,03,39,15.10
2018,08,21,03,40,15.10
2018,08,21,03,41,15.10
2018,08,21,03,42,15.10
2018,08,21,03,43,15.10
2018,08,21,03,44,15.00
2018,08,21,03,45,15.00
2018,08,21,03,46,15.00
2018,08,21,03,47,15.00
2018,08,21,03,48,15.00
2018,08,21,03,49,14.90
2018,08,21,03,50,14.90
2018,08,21,03,51,14.90
2018,08,21,03,52,14.90
2018,08,21,03,53,14.90
2018,08,21,03,54,14.90
2018,08,21,03,55,14.90
2018,08,21,03,56,14.90
2018,08,21,03,57,14.90
2018,08,21,03,58,14.90
2018,08,21,03,59,14.90
2018,08,21,04,00,14.90
2018,08,21,04,01,14.90
2018,08,21,04,02,14.90
2018,08,21,04,03,14.90
2018,08,21,04,04,14.90
2018,08,21,04,05,14.80
2018,08,21,04,06,14.80
2018,08,21,04,07,14.80
2018,08,21,04,08,14.80
2018,08,21,04,09,14.80
2018,08,21,04,10,14.80
2018,08,21,04,11,14.80
2018,08,21,04,12,14.80
2018,08,21,04,13,14.80
2018,08,21,04,14,14.80
2018,08,21,04,15,14.80
2018,08,21,04,16,14.90
2018,08,21,04,17,14.90
2018,08,21,04,18,14.90
2018,08,21,04,19,14.90
2018,08,21,04,20,14.90
2018,08,21,04,21,14.90
2018,08,21,04,22,14.90
2018,08,21,04,23,14.90
2018,08,21,04,24,14.90
2018,08,21,04,25,14.90
2018,08,21,04,26,14.90
2018,08,21,04,27,14.90
2018,08,21,04,28,14.90
2018,08,21,04,29,14.80
2018,08,21,04,30,14.80
2018,08,21,04,31,14.80
2018,08,21,04,32,14.80
2018,08,21,04,33,14.80
2018,08,21,04,34,14.80
2018,08,21,04,35,14.80
2018,08,21,04,36,14.80
2018,08,21,04,37,14.70
2018,08,21,04,38,14.70
2018,08,21,04,39,14.70
2018,08,21,04,40,14.60
2018,08,21,04,41,14.60
2018,08,21,04,42,14.60
2018,08,21,04,43,14.60
2018,08,21,04,44,14.50
2018,08,21,04,45,14.50
2018,08,21,04,46,14.50
2018,08,21,04,47,14.50
2018,08,21,04,48,14.50
2018,08,21,04,49,14.50
2018,08,21,04,50,14.50
2018,08,21,04,51,14.50
2018,08,21,04,52,14.50
2018,08,21,04,53,14.50
2018,08,21,04,54,14.50
2018,08,21,04,55,14.50
2018,08,21,04,56,14.50
2018,08,21,04,57,14.40
2018,08,21,04,58,14.40
2018,08,21,04,59,14.40
2018,08,21,05,00,14.40
2018,08,21,05,01,14.40
2018,08,21,05,02,14.40
2018,08,21,05,03,14.40
2018,08,21,05,04,14.40
2018,08,21,05,05,14.40
2018,08,21,05,06,14.40
2018,08,21,05,07,14.40
2018,08,21,05,08,14.40
2018,08,21,05,09,14.40
2018,08,21,05,10,14.40
2018,08,21,05,11,14.30
2018,08,21,05,12,14.30
2018,08,21,05,13,14.30
2018,08,21,05,14,14.30
2018,08,21,05,15,14.30
2018,08,21,05,16,14.30
2018,08,21,05,17,14.20
2018,08,21,05,18,14.20
2018,08,21,05,19,14.20
2018,08,21,05,20,14.20
2018,08,21,05,21,14.20
2018,08,21,05,22,14.20
2018,08,21,05,23,14.20
2018,08,21,05,24,14.10
2018,08,21,05,25,14.10
2018,08,21,05,26,14.10
2018,08,21,05,27,14.10
2018,08,21,05,28,14.00
2018,08,21,05,29,14.00
2018,08,21,05,30,14.00
2018,08,21,05,31,14.00
2018,08,21,05,32,14.00
2018,08,21,05,33,14.00
2018,08,21,05,34,14.00
2018,08,21,05,35,14.00
2018,08,21,05,36,13.90
2018,08,21,05,37,13.90
2018,08,21,05,38,13.90
2018,08,21,05,39,13.90
2018,08,21,05,40,13.90
2018,08,21,05,41,13.80
2018,08,21,05,42,13.80
2018,08,21,05,43,13.80
2018,08,21,05,44,13.80
2018,08,21,05,45,13.70
2018,08,21,05,46,13.70
2018,08,21,05,47,13.70
2018,08,21,05,48,13.70
2018,08,21,05,49,13.70
2018,08,21,05,50,13.70
2018,08,21,05,51,13.70
2018,08,21,05,52,13.70
2018,08,21,05,53,13.70
2018,08,21,05,54,13.70
2018,08,21,05,55,13.60
2018,08,21,05,56,13.60
2018,08,21,05,57,13.60
2018,08,21,05,58,13.60
2018,08,21,05,59,13.60
2018,08,21,06,00,13.60
2018,08,21,06,01,13.60
2018,08,21,06,02,13.60
2018,08,21,06,03,13.60
2018,08,21,06,04,13.70
2018,08,21,06,05,13.70
2018,08,21,06,06,13.70
2018,08,21,06,07,13.70
2018,08,21,06,08,13.70
2018,08,21,06,09,13.80
2018,08,21,06,10,13.80
2018,08,21,06,11,13.80
2018,08,21,06,12,13.90
2018,08,21,06,13,13.90
2018,08,21,06,14,13.90
2018,08,21,06,15,13.90
2018,08,21,06,16,14.00
2018,08,21,06,17,14.00
2018,08,21,06,18,14.00
2018,08,21,06,19,14.00
2018,08,21,06,20,14.00
2018,08,21,06,21,14.00
2018,08,21,06,22,14.00
2018,08,21,06,23,14.00
2018,08,21,06,24,14.00
2018,08,21,06,25,14.00
2018,08,21,06,26,13.90
2018,08,21,06,27,13.90
2018,08,21,06,28,13.90
2018,08,21,06,29,13.90
2018,08,21,06,30,13.90
2018,08,21,06,31,13.90
2018,08,21,06,32,13.90
2018,08,21,06,33,13.90
2018,08,21,06,34,13.90
2018,08,21,06,35,13.90
2018,08,21,06,36,13.90
2018,08,21,06,37,13.90
2018,08,21,06,38,13.90
2018,08,21,06,39,13.90
2018,08,21,06,40,13.90
2018,08,21,06,41,13.90
2018,08,21,06,42,13.90
2018,08,21,06,43,13.90
2018,08,21,06,44,13.90
2018,08,21,06,45,13.80
2018,08,21,06,46,13.80
2018,08,21,06,47,13.80
2018,08,21,06,48,13.80
2018,08,21,06,49,13.70
2018,08,21,06,50,13.70
2018,08,21,06,51,13.70
2018,08,21,06,52,13.70
2018,08,21,06,53,13.70
2018,08,21,06,54,13.70
2018,08,21,06,55,13.70
2018,08,21,06,56,13.70
2018,08,21,06,57,13.70
2018,08,21,06,58,13.70
2018,08,21,06,59,13.70
2018,08,21,07,00,13.70
2018,08,21,07,01,13.70
2018,08,21,07,02,13.70
2018,08,21,07,03,13.70
2018,08,21,07,04,13.70
2018,08,21,07,05,13.70
2018,08,21,07,06,13.70
2018,08,21,07,07,13.70
2018,08,21,07,08,13.70
2018,08,21,07,09,13.70
2018,08,21,07,10,13.70
2018,08,21,07,11,13.70
2018,08,21,07,12,13.70
2018,08,21,07,13,13.80
2018,08,21,07,14,13.80
2018,08,21,07,15,13.80
2018,08,21,07,16,13.80
2018,08,21,07,17,13.80
2018,08,21,07,18,13.80
2018,08,21,07,19,13.80
2018,08,21,07,20,13.90
2018,08,21,07,21,13.90
2018,08,21,07,22,13.90
2018,08,21,07,23,13.90
2018,08,21,07,24,13.90
2018,08,21,07,25,13.90
2018,08,21,07,26,13.90
2018,08,21,07,27,13.90
2018,08,21,07,28,14.00
2018,08,21,07,29,14.00
2018,08,21,07,30,14.10
2018,08,21,07,31,14.10
2018,08,21,07,32,14.20
2018,08,21,07,33,14.20
2018,08,21,07,34,14.20
2018,08,21,07,35,14.20
2018,08,21,07,36,14.20
2018,08,21,07,37,14.30
2018,08,21,07,38,14.40
2018,08,21,07,39,14.40
2018,08,21,07,40,14.50
2018,08,21,07,41,14.50
2018,08,21,07,42,14.50
2018,08,21,07,43,14.60
2018,08,21,07,44,14.60
2018,08,21,07,45,14.60
2018,08,21,07,46,14.70
2018,08,21,07,47,14.70
2018,08,21,07,48,14.70
2018,08,21,07,49,14.70
2018,08,21,07,50,14.80
2018,08,21,07,51,14.80
2018,08,21,07,52,14.80
2018,08,21,07,53,14.80
2018,08,21,07,54,14.80
2018,08,21,07,55,14.80
2018,08,21,07,56,14.90
2018,08,21,07,57,14.90
2018,08,21,07,58,14.90
2018,08,21,07,59,15.00
2018,08,21,08,00,15.10
2018,08,21,08,01,15.20
2018,08,21,08,02,15.20
2018,08,21,08,03,15.30
2018,08,21,08,04,15.40
2018,08,21,08,05,15.40
2018,08,21,08,06,15.50
2018,08,21,08,07,15.50
2018,08,21,08,08,15.60
2018,08,21,08,09,15.70
2018,08,21,08,10,15.70
2018,08,21,08,11,15.80
2018,08,21,08,12,15.80
2018,08,21,08,13,15.80
2018,08,21,08,14,15.90
2018,08,21,08,15,15.90
2018,08,21,08,16,16.00
2018,08,21,08,17,16.10
2018,08,21,08,18,16.10
2018,08,21,08,19,16.20
2018,08,21,08,20,16.30
2018,08,21,08,21,16.30
2018,08,21,08,22,16.40
2018,08,21,08,23,16.40
2018,08,21,08,24,16.40
2018,08,21,08,25,16.50
2018,08,21,08,26,16.60
2018,08,21,08,27,16.70
2018,08,21,08,28,16.70
2018,08,21,08,29,16.80
2018,08,21,08,30,16.90
2018,08,21,08,31,16.90
2018,08,21,08,32,17.00
2018,08,21,08,33,17.00
2018,08,21,08,34,17.10
2018,08,21,08,35,17.20
2018,08,21,08,36,17.20
2018,08,21,08,37,17.30
2018,08,21,08,38,17.30
2018,08,21,08,39,17.30
2018,08,21,08,40,17.40
2018,08,21,08,41,17.40
2018,08,21,08,42,17.50
2018,08,21,08,43,17.50
2018,08,21,08,44,17.60
2018,08,21,08,45,17.70
2018,08,21,08,46,17.80
2018,08,21,08,47,17.80
2018,08,21,08,48,17.90
2018,08,21,08,49,17.90
2018,08,21,08,50,18.00
2018,08,21,08,51,18.10
2018,08,21,08,52,18.20
2018,08,21,08,53,18.20
2018,08,21,08,54,18.30
2018,08,21,08,55,18.40
2018,08,21,08,56,18.40
2018,08,21,08,57,18.50
2018,08,21,08,58,18.50
2018,08,21,08,59,18.60
2018,08,21,09,00,18.60
2018,08,21,09,01,18.70
2018,08,21,09,02,18.70
2018,08,21,09,03,18.80
2018,08,21,09,04,18.80
2018,08,21,09,05,18.90
2018,08,21,09,06,18.90
2018,08,21,09,07,19.00
2018,08,21,09,08,19.10
2018,08,21,09,09,19.10
2018,08,21,09,10,19.30
2018,08,21,09,11,19.40
2018,08,21,09,12,19.40
2018,08,21,09,13,19.50
2018,08,21,09,14,19.60
2018,08,21,09,15,19.70
2018,08,21,09,16,19.80
2018,08,21,09,17,19.90
2018,08,21,09,18,19.90
2018,08,21,09,19,20.00
2018,08,21,09,20,20.10
2018,08,21,09,21,20.20
2018,08,21,09,22,20.20
2018,08,21,09,23,20.30
2018,08,21,09,24,20.40
2018,08,21,09,25,20.50
2018,08,21,09,26,20.60
2018,08,21,09,27,20.60
2018,08,21,09,28,20.70
2018,08,21,09,29,20.80
2018,08,21,09,30,20.90
2018,08,21,09,31,20.90
2018,08,21,09,32,21.00
2018,08,21,09,33,21.10
2018,08,21,09,34,21.20
2018,08,21,09,35,21.20
2018,08,21,09,36,21.30
2018,08,21,09,37,21.30
2018,08,21,09,38,21.30
2018,08,21,09,39,21.40
2018,08,21,09,40,21.50
2018,08,21,09,41,21.60
2018,08,21,09,42,21.70
2018,08,21,09,43,21.70
2018,08,21,09,44,21.80
2018,08,21,09,45,21.90
2018,08,21,09,46,22.00
2018,08,21,09,47,22.10
2018,08,21,09,48,22.20
2018,08,21,09,49,22.30
2018,08,21,09,50,22.30
2018,08,21,09,51,22.40
2018,08,21,09,52,22.50
2018,08,21,09,53,22.60
2018,08,21,09,54,22.60
2018,08,21,09,55,22.70
2018,08,21,09,56,22.80
2018,08,21,09,57,22.90
2018,08,21,09,58,22.90
2018,08,21,09,59,23.00
2018,08,21,10,00,23.10
2018,08,21,10,01,23.20
2018,08,21,10,02,23.20
2018,08,21,10,03,23.30
2018,08,21,10,04,23.30
2018,08,21,10,05,23.30
2018,08,21,10,06,23.40
2018,08,21,10,07,23.40
2018,08,21,10,08,23.50
2018,08,21,10,09,23.60
2018,08,21,10,10,23.60
2018,08,21,10,11,23.70
2018,08,21,10,12,23.70
2018,08,21,10,13,23.70
2018,08,21,10,14,23.70
2018,08,21,10,15,23.70
2018,08,21,10,16,23.70
2018,08,21,10,17,23.70
2018,08,21,10,18,23.70
2018,08,21,10,19,23.70
2018,08,21,10,20,23.70
2018,08,21,10,21,23.80
2018,08,21,10,22,23.80
2018,08,21,10,23,23.80
2018,08,21,10,24,23.80
2018,08,21,10,25,23.90
2018,08,21,10,26,23.90
2018,08,21,10,27,23.90
2018,08,21,10,28,24.00
2018,08,21,10,29,24.10
2018,08,21,10,30,24.10
2018,08,21,10,31,24.10
2018,08,21,10,32,24.10
2018,08,21,10,33,24.10
2018,08,21,10,34,24.10
2018,08,21,10,35,24.10
2018,08,21,10,36,24.00
2018,08,21,10,37,23.90
2018,08,21,10,38,23.90
2018,08,21,10,39,23.90
2018,08,21,10,40,23.90
2018,08,21,10,41,23.90
2018,08,21,10,42,23.80
2018,08,21,10,43,23.80
2018,08,21,10,44,23.80
2018,08,21,10,45,23.80
2018,08,21,10,46,23.80
2018,08,21,10,47,23.80
2018,08,21,10,48,23.80
2018,08,21,10,49,23.80
2018,08,21,10,50,23.80
2018,08,21,10,51,23.80
2018,08,21,10,52,23.80
2018,08,21,10,53,23.80
2018,08,21,10,54,23.80
2018,08,21,10,55,23.70
2018,08,21,10,56,23.70
2018,08,21,10,57,23.60
2018,08,21,10,58,23.60
2018,08,21,10,59,23.50
2018,08,21,11,00,23.40
2018,08,21,11,01,23.40
2018,08,21,11,02,23.30
2018,08,21,11,03,23.30
2018,08,21,11,04,23.30
2018,08,21,11,05,23.30
2018,08,21,11,06,23.30
2018,08,21,11,07,23.30
2018,08,21,11,08,23.20
2018,08,21,11,09,23.10
2018,08,21,11,10,23.10
2018,08,21,11,11,23.10
2018,08,21,11,12,23.10
2018,08,21,11,13,23.10
2018,08,21,11,14,23.00
2018,08,21,11,15,22.90
2018,08,21,11,16,22.90
2018,08,21,11,17,22.90
2018,08,21,11,18,22.90
2018,08,21,11,19,22.90
2018,08,21,11,20,22.90
2018,08,21,11,21,22.90
2018,08,21,11,22,22.90
2018,08,21,11,23,22.90
2018,08,21,11,24,22.90
2018,08,21,11,25,22.90
2018,08,21,11,26,22.90
2018,08,21,11,27,22.90
2018,08,21,11,28,22.90
2018,08,21,11,29,22.90
2018,08,21,11,30,22.90
2018,08,21,11,31,22.90
2018,08,21,11,32,22.90
2018,08,21,11,33,22.90
2018,08,21,11,34,22.80
2018,08,21,11,35,22.80
2018,08,21,11,36,22.80
2018,08,21,11,37,22.80
2018,08,21,11,38,22.80
2018,08,21,11,39,22.80
2018,08,21,11,40,22.90
2018,08,21,11,41,22.90
2018,08,21,11,42,22.90
2018,08,21,11,43,22.90
2018,08,21,11,44,23.00
2018,08,21,11,45,23.10
2018,08,21,11,46,23.10
2018,08,21,11,47,23.20
2018,08,21,11,48,23.20
2018,08,21,11,49,23.30
2018,08,21,11,50,23.30
2018,08,21,11,51,23.50
2018,08,21,11,52,23.60
2018,08,21,11,53,23.70
2018,08,21,11,54,23.70
2018,08,21,11,55,23.70
2018,08,21,11,56,23.70
2018,08,21,11,57,23.70
2018,08,21,11,58,23.80
2018,08,21,11,59,23.80
2018,08,21,12,00,23.80
2018,08,21,12,01,23.80
2018,08,21,12,02,23.80
2018,08,21,12,03,23.90
2018,08,21,12,04,24.00
2018,08,21,12,05,24.10
2018,08,21,12,06,24.10
2018,08,21,12,07,24.10
2018,08,21,12,08,24.20
2018,08,21,12,09,24.20
2018,08,21,12,10,24.30
2018,08,21,12,11,24.30
2018,08,21,12,12,24.20
2018,08,21,12,13,24.20
2018,08,21,12,14,24.30
2018,08,21,12,15,24.30
2018,08,21,12,16,24.20
2018,08,21,12,17,24.10
2018,08,21,12,18,24.10
2018,08,21,12,19,24.10
2018,08,21,12,20,24.20
2018,08,21,12,21,24.30
2018,08,21,12,22,24.30
2018,08,21,12,23,24.40
2018,08,21,12,24,24.40
2018,08,21,12,25,24.40
2018,08,21,12,26,24.30
2018,08,21,12,27,24.40
2018,08,21,12,28,24.50
2018,08,21,12,29,24.50
2018,08,21,12,30,24.50
2018,08,21,12,31,24.50
2018,08,21,12,32,24.50
2018,08,21,12,33,24.50
2018,08,21,12,34,24.50
2018,08,21,12,35,24.50
2018,08,21,12,36,24.50
2018,08,21,12,37,24.60
2018,08,21,12,38,24.50
2018,08,21,12,39,24.50
2018,08,21,12,40,24.40
2018,08,21,12,41,24.40
2018,08,21,12,42,24.50
2018,08,21,12,43,24.50
2018,08,21,12,44,24.60
2018,08,21,12,45,24.70
2018,08,21,12,46,24.70
2018,08,21,12,47,24.80
2018,08,21,12,48,24.80
2018,08,21,12,49,24.80
2018,08,21,12,50,24.80
2018,08,21,12,51,24.80
2018,08,21,12,52,24.80
2018,08,21,12,53,24.80
2018,08,21,12,54,24.90
2018,08,21,12,55,24.90
2018,08,21,12,56,25.00
2018,08,21,12,57,25.10
2018,08,21,12,58,25.20
2018,08,21,12,59,25.20
2018,08,21,13,00,25.20
2018,08,21,13,01,25.20
2018,08,21,13,02,25.20
2018,08,21,13,03,25.30
2018,08,21,13,04,25.40
2018,08,21,13,05,25.40
2018,08,21,13,06,25.40
2018,08,21,13,07,25.40
2018,08,21,13,08,25.40
2018,08,21,13,09,25.40
2018,08,21,13,10,25.30
2018,08,21,13,11,25.20
2018,08,21,13,12,25.20
2018,08,21,13,13,25.30
2018,08,21,13,14,25.30
2018,08,21,13,15,25.30
2018,08,21,13,16,25.40
2018,08,21,13,17,25.50
2018,08,21,13,18,25.50
2018,08,21,13,19,25.50
2018,08,21,13,20,25.50
2018,08,21,13,21,25.60
2018,08,21,13,22,25.60
2018,08,21,13,23,25.70
2018,08,21,13,24,25.70
2018,08,21,13,25,25.70
2018,08,21,13,26,25.70
2018,08,21,13,27,25.70
2018,08,21,13,28,25.70
2018,08,21,13,29,25.70
2018,08,21,13,30,25.70
2018,08,21,13,31,25.80
2018,08,21,13,32,25.80
2018,08,21,13,33,25.90
2018,08,21,13,34,25.90
2018,08,21,13,35,25.90
2018,08,21,13,36,26.00
2018,08,21,13,37,26.10
2018,08,21,13,38,26.10
2018,08,21,13,39,26.10
2018,08,21,13,40,26.20
2018,08,21,13,41,26.10
2018,08,21,13,42,26.10
2018,08,21,13,43,26.00
2018,08,21,13,44,25.90
2018,08,21,13,45,25.80
2018,08,21,13,46,25.70
2018,08,21,13,47,25.70
2018,08,21,13,48,25.70
2018,08,21,13,49,25.70
2018,08,21,13,50,25.70
2018,08,21,13,51,25.80
2018,08,21,13,52,25.80
2018,08,21,13,53,25.90
2018,08,21,13,54,26.00
2018,08,21,13,55,25.90
2018,08,21,13,56,25.90
2018,08,21,13,57,25.80
2018,08,21,13,58,25.70
2018,08,21,13,59,25.60
2018,08,21,14,00,25.60
2018,08,21,14,01,25.60
2018,08,21,14,02,25.70
2018,08,21,14,03,25.70
2018,08,21,14,04,25.70
2018,08,21,14,05,25.70
2018,08,21,14,06,25.70
2018,08,21,14,07,25.70
2018,08,21,14,08,25.70
2018,08,21,14,09,25.70
2018,08,21,14,10,25.70
2018,08,21,14,11,25.80
2018,08,21,14,12,25.80
2018,08,21,14,13,25.90
2018,08,21,14,14,25.90
2018,08,21,14,15,26.00
2018,08,21,14,16,26.00
2018,08,21,14,17,26.00
2018,08,21,14,18,26.10
2018,08,21,14,19,26.10
2018,08,21,14,20,26.10
2018,08,21,14,21,26.20
2018,08,21,14,22,26.20
2018,08,21,14,23,26.20
2018,08,21,14,24,26.30
2018,08,21,14,25,26.40
2018,08,21,14,26,26.50
2018,08,21,14,27,26.60
2018,08,21,14,28,26.60
2018,08,21,14,29,26.60
2018,08,21,14,30,26.60
2018,08,21,14,31,26.60
2018,08,21,14,32,26.60
2018,08,21,14,33,26.70
2018,08,21,14,34,26.70
2018,08,21,14,35,26.70
2018,08,21,14,36,26.70
2018,08,21,14,37,26.60
2018,08,21,14,38,26.60
2018,08,21,14,39,26.60
2018,08,21,14,40,26.70
2018,08,21,14,41,26.60
2018,08,21,14,42,26.60
2018,08,21,14,43,26.60
2018,08,21,14,44,26.60
2018,08,21,14,45,26.60
2018,08,21,14,46,26.60
2018,08,21,14,47,26.60
2018,08,21,14,48,26.60
2018,08,21,14,49,26.60
2018,08,21,14,50,26.60
2018,08,21,14,51,26.70
2018,08,21,14,52,26.70
2018,08,21,14,53,26.60
2018,08,21,14,54,26.60
2018,08,21,14,55,26.60
2018,08,21,14,56,26.50
2018,08,21,14,57,26.40
2018,08,21,14,58,26.30
2018,08,21,14,59,26.20
2018,08,21,15,00,26.20
2018,08,21,15,01,26.10
2018,08,21,15,02,26.00
2018,08,21,15,03,26.00
2018,08,21,15,04,26.00
2018,08,21,15,05,26.00
2018,08,21,15,06,26.00
2018,08,21,15,07,26.10
2018,08,21,15,08,26.10
2018,08,21,15,09,26.00
2018,08,21,15,10,26.10
2018,08,21,15,11,26.10
2018,08,21,15,12,26.20
2018,08,21,15,13,26.30
2018,08,21,15,14,26.30
2018,08,21,15,15,26.40
2018,08,21,15,16,26.50
2018,08,21,15,17,26.60
2018,08,21,15,18,26.60
2018,08,21,15,19,26.70
2018,08,21,15,20,26.70
2018,08,21,15,21,26.80
2018,08,21,15,22,26.80
2018,08,21,15,23,26.80
2018,08,21,15,24,26.80
2018,08,21,15,25,26.90
2018,08,21,15,26,26.90
2018,08,21,15,27,26.90
2018,08,21,15,28,26.90
2018,08,21,15,29,26.90
2018,08,21,15,30,26.90
2018,08,21,15,31,26.90
2018,08,21,15,32,27.00
2018,08,21,15,33,27.10
2018,08,21,15,34,27.10
2018,08,21,15,35,27.20
2018,08,21,15,36,27.30
2018,08,21,15,37,27.30
2018,08,21,15,38,27.40
2018,08,21,15,39,27.40
2018,08,21,15,40,27.50
2018,08,21,15,41,27.60
2018,08,21,15,42,27.70
2018,08,21,15,43,27.70
2018,08,21,15,44,27.70
2018,08,21,15,45,27.80
2018,08,21,15,46,27.90
2018,08,21,15,47,27.90
2018,08,21,15,48,27.90
2018,08,21,15,49,27.90
2018,08,21,15,50,27.90
2018,08,21,15,51,27.90
2018,08,21,15,52,27.90
2018,08,21,15,53,27.90
2018,08,21,15,54,28.00
2018,08,21,15,55,28.10
2018,08,21,15,56,28.10
2018,08,21,15,57,28.20
2018,08,21,15,58,28.20
2018,08,21,15,59,28.30
2018,08,21,16,00,28.40
2018,08,21,16,01,28.40
2018,08,21,16,02,28.40
2018,08,21,16,03,28.40
2018,08,21,16,04,28.40
2018,08,21,16,05,28.40
2018,08,21,16,06,28.40
2018,08,21,16,07,28.40
2018,08,21,16,08,28.40
2018,08,21,16,09,28.40
2018,08,21,16,10,28.40
2018,08,21,16,11,28.50
2018,08,21,16,12,28.60
2018,08,21,16,13,28.60
2018,08,21,16,14,28.60
2018,08,21,16,15,28.70
2018,08,21,16,16,28.70
2018,08,21,16,17,28.80
2018,08,21,16,18,28.80
2018,08,21,16,19,28.70
2018,08,21,16,20,28.60
2018,08,21,16,21,28.60
2018,08,21,16,22,28.60
2018,08,21,16,23,28.60
2018,08,21,16,24,28.60
2018,08,21,16,25,28.50
2018,08,21,16,26,28.40
2018,08,21,16,27,28.40
2018,08,21,16,28,28.40
2018,08,21,16,29,28.50
2018,08,21,16,30,28.60
2018,08,21,16,31,28.60
2018,08,21,16,32,28.50
2018,08,21,16,33,28.40
2018,08,21,16,34,28.40
2018,08,21,16,35,28.40
2018,08,21,16,36,28.40
2018,08,21,16,37,28.40
2018,08,21,16,38,28.40
2018,08,21,16,39,28.40
2018,08,21,16,40,28.50
2018,08,21,16,41,28.60
2018,08,21,16,42,28.60
2018,08,21,16,43,28.70
2018,08,21,16,44,28.70
2018,08,21,16,45,28.70
2018,08,21,16,46,28.70
2018,08,21,16,47,28.60
2018,08,21,16,48,28.60
2018,08,21,16,49,28.60
2018,08,21,16,50,28.60
2018,08,21,16,51,28.50
2018,08,21,16,52,28.40
2018,08,21,16,53,28.30
2018,08,21,16,54,28.30
2018,08,21,16,55,28.20
2018,08,21,16,56,28.20
2018,08,21,16,57,28.20
2018,08,21,16,58,28.20
2018,08,21,16,59,28.20
2018,08,21,17,00,28.10
2018,08,21,17,01,28.10
2018,08,21,17,02,28.00
2018,08,21,17,03,27.90
2018,08,21,17,04,27.90
2018,08,21,17,05,27.80
2018,08,21,17,06,27.70
2018,08,21,17,07,27.60
2018,08,21,17,08,27.50
2018,08,21,17,09,27.40
2018,08,21,17,10,27.30
2018,08,21,17,11,27.20
2018,08,21,17,12,27.10
2018,08,21,17,13,27.00
2018,08,21,17,14,26.90
2018,08,21,17,15,26.80
2018,08,21,17,16,26.80
2018,08,21,17,17,26.70
2018,08,21,17,18,26.60
2018,08,21,17,19,26.60